Regional Weather Roundup
Issued by NWS Jackson, KY

Home | Current Version | Previous Version | Graphics & Text | Print | Product List | Glossary On
Versions: 1 2 3 4 5 6 7 8 9 10 11 12 13 14 15 16 17 18 19 20 21 22 23 24 25 26 27 28 29 30 31 32 33 34 35 36 37 38 39 40 41 42 43 44 45 46 47 48 49 50
000
ASUS43 KJKL 230810
RWRJKL

EAST KENTUCKY HOURLY WEATHER ROUNDUP
NATIONAL WEATHER SERVICE JACKSON KY
400 AM EDT SUN APR 23 2017

NOTE: "FAIR" INDICATES FEW OR NO CLOUDS BELOW 12,000 FEET WITH
NO SIGNIFICANT WEATHER AND/OR OBSTRUCTIONS TO VISIBILITY.

* THESE REPORTS ARE NOT UNDER NWS QUALITY CONTROL AND MAY NOT
  REPORT WEATHER SUCH AS PRECIPITATION AND FOG.

KYZ079-080-083-085-087-088-110-112-115-119-120-230900
...EASTERN KENTUCKY...

CITY           SKY/WX    TMP DP  RH WIND       PRES   REMARKS
JACKSON        CLOUDY    47  43  86 VRB3      29.95F
LONDON         CLOUDY    48  45  89 E8        29.92F
SOMERSET*      CLOUDY    46  46 100 E10       29.92F
MONTICELLO*    LGT RAIN  48  47  96 N10G16    29.91F
WILLIAMSBURG*  CLOUDY    48  48 100 NE7       29.89F
MIDDLESBORO*   CLOUDY    52  50  95 CALM      29.90S
HARLAN APT*    CLOUDY    50  46  87 NE3       29.91S
PIKE CO APT*   CLOUDY    46  46 100 N6        29.96S
BIG SANDY APT* CLOUDY    47  45  94 NE6       29.97S
MOREHEAD APT*  CLOUDY    45  39  81 NE8       30.00S
ASHLAND*       CLEAR     45  39  81 NE5       29.99F
$$

KYZ035-036-041-042-044-050-067-078-099-230900
...CENTRAL KENTUCKY...

CITY           SKY/WX    TMP DP  RH WIND       PRES   REMARKS
MT STERLING*   CLOUDY    43  41  93 E7        29.99F
FLEMING/MASON* MOCLDY    43  38  82 NE9       30.01S
DANVILLE*      CLOUDY    46  43  87 E10       29.96S
LEXINGTON      CLOUDY    47  39  74 NE13      29.97F
FRANKFORT      MOCLDY    47  37  68 NE7       29.97F
LOUISVILLE     CLOUDY    49  39  68 NE9       29.97F
LEBANON*         N/A     48  41  76 NE7       29.95S
GLASGOW*       DRIZZLE   49  44  84 NE12G21   29.88F
BOWLING GREEN  CLOUDY    51  46  83 NE12      29.90F
$$

KYZ091>093-OHZ055-061-077-WVZ005-015-034-035-042-230900
...SOUTHERN OHIO/WEST VIRGINIA...

CITY           SKY/WX    TMP DP  RH WIND       PRES   REMARKS
COVINGTON      CLOUDY    45  35  68 NE15      30.02F
COLUMBUS       CLEAR     39  35  86 N6        30.07R WCI  35
DAYTON         CLEAR     37  32  82 NE8       30.08R WCI  31
WILMINGTON     CLEAR     40  36  86 NE9       30.05S WCI  34
HUNTINGTON     CLEAR     44  41  89 NE3       29.99F
CHARLESTON     CLOUDY    46  43  89 E3        30.00S
PINEVILLE*     CLOUDY    49  48  95 MISG      30.01S FOG
BECKLEY        CLOUDY    47  45  93 E5        29.97S
BLUEFIELD      CLOUDY    47  46  97 VRB7      29.97S FOG
LOGAN CO APT*  CLOUDY    46  45  93 NE8       29.96F
$$

VAZ002-007-008-TNZ017-027-036-066-071-230900
...SOUTHWEST VIRGINIA/EAST TENNESSEE...

CITY           SKY/WX    TMP DP  RH WIND       PRES   REMARKS
WISE*          FOG       46  46 100 N7        29.94S VSB 1/4
JONESVILLE*    CLOUDY    54  52  94 E6        29.91S
ABINGDON*      CLOUDY    56  55  97 NE6       29.90S
BRISTOL        CLOUDY    56  54  93 CALM      29.88S
MORRISTOWN*    CLOUDY    57  55  94 NE6       29.85S
SEVIERVILLE*   CLOUDY    55  55 100 S3        29.83F
KNOXVILLE      LGT RAIN  58  57  97 N8        29.82F FOG
LAFOLLETTE*    CLOUDY    52  50  93 CALM      29.89F
OAK RIDGE      CLOUDY    55  53  93 VRB3      29.85F
CROSSVILLE     FOG       49  48  97 NE9       29.83F VSB 1/4
NASHVILLE      DRIZZLE   51  49  92 NE9       29.85F
$$

...KEY TO REMARKS...
VSB - VISIBILITY IN MILES
WCI - WIND CHILL INDEX
HX  - HEAT INDEX

$$



USA.gov is the U.S. government's official web portal to all federal, state and local government web resources and services.